Regional Weather Roundup
Issued by NWS

Home | Current Version | Previous Version | Text Only | Print | Product List | Glossary Off
Versions: 1 2 3 4 5 6 7 8 9 10 11 12 13 14 15 16 17 18 19 20 21 22 23 24 25 26 27 28 29 30 31 32 33 34 35 36 37 38 39 40 41 42 43 44 45 46 47 48 49 50

000
ASUS43 KDMX 301307
RWRIA

WEATHER ROUNDUP FOR IOWA
NATIONAL WEATHER SERVICE DES MOINES IA
800 AM CDT MON MAR 30 2015

NOTE: "FAIR" INDICATES FEW OR NO CLOUDS BELOW 12,000 FEET WITH NO
SIGNIFICANT WEATHER AND/OR OBSTRUCTIONS TO VISIBILITY.

* - THESE STATIONS ARE NOT NWS STATIONS...THUS NOT UNDER NWS
QUALITY CONTROL.  THEY ALSO DO NOT REPORT WEATHER SUCH
AS PRECIPITATION OR FOG.

IAZ001>003-012>014-020>022-031>034-043>046-301400-
   NORTHWEST IOWA

CITY           SKY/WX    TMP DP  RH WIND       PRES   REMARKS
CARROLL *      CLEAR     39  25  56 W12       30.08S WCI  32
CHEROKEE *     PTCLDY    28  27  93 CALM      30.05F
DENISON *      CLEAR     32  27  80 CALM      30.08S
LE MARS *      CLEAR     37  25  60 S6        30.04F WCI  33
ORANGE CITY *  CLEAR     36  23  60 S6        30.02F WCI  31
SHELDON *      CLEAR     34  25  69 S7        30.01F WCI  28
SIOUX CITY     CLEAR     32  23  69 E8        30.05F WCI  25
SPENCER        PTCLDY    35  26  69 SW9       30.03F WCI  28
STORM LAKE *   PTCLDY    37  23  56 SW10      30.06F WCI  30
$$

IAZ055>058-069>071-079>083-090>094-301400-
   SOUTHWEST IOWA

CITY           SKY/WX    TMP DP  RH WIND       PRES   REMARKS
ATLANTIC *     CLEAR     28  27  93 CALM      30.12S
AUDUBON *      CLEAR     32  27  80 CALM      30.11S
CLARINDA *     CLEAR     30  27  86 CALM      30.16R
COUNCIL BLFS * CLEAR     43  27  52 SW8       30.11S
CRESTON *      CLEAR     36  27  69 SW6       30.13S WCI  31
HARLAN  *      CLEAR     30  30 100 CALM      30.14S
LAMONI         PTSUNNY   40  29  64 SW7       30.14R
RED OAK *      CLEAR     32  28  86 CALM      30.13S
SHENANDOAH *   CLEAR     32  28  86 CALM      30.14S
$$

IAZ047>049-059>061-072>074-084-301400-
   CENTRAL IOWA

CITY           SKY/WX    TMP DP  RH WIND       PRES   REMARKS
AMES           MOSUNNY   37  25  61 SW9       30.09S WCI  30
ANKENY *       SUNNY     32  27  80 SE3       30.11S
CHARITON *     SUNNY     39  27  60 SW7       30.14R WCI  34
DES MOINES     MOSUNNY   40  25  55 SW6       30.12R
GRINNELL*      MOSUNNY   37  27  65 SW7       30.11R WCI  32
KNOXVILLE *    SUNNY     39  25  56 SW8       30.11R WCI  34
MARSHALLTOWN   MOSUNNY   36  28  73 SW5       30.08R WCI  32
PELLA *        SUNNY     39  30  70 SW5       30.13R
PERRY *          N/A     34  28  80 S3        30.09F
$$

IAZ004>006-015-016-023>025-035-036-301400-
   NORTH CENTRAL IOWA

CITY           SKY/WX    TMP DP  RH WIND       PRES   REMARKS
ALGONA *       PTCLDY    37  27  65 SW9       30.04F WCI  31
CLARION *      PTCLDY    34  28  80 CALM      30.06F
ESTHERVILLE    MOCLDY    35  25  66 SW6       30.01F WCI  30
FORT DODGE *   MOCLDY    37  25  60 S7        30.07F WCI  32
MASON CITY     MOSUNNY   43  26  51 W16       30.04F
FOREST CITY *  PTSUNNY   36  28  75 SW8       30.03F WCI  29
IOWA FALLS *     N/A     39  27  60 SW13      30.08S WCI  32
$$

IAZ007>011-017>019-026>030-037>042-050>054-066-301400-
   NORTHEAST IOWA

CITY           SKY/WX    TMP DP  RH WIND       PRES   REMARKS
CEDAR RAPIDS   SUNNY     38  28  67 W10       30.08R WCI  31
CHARLES CITY * SUNNY     39  27  60 W14       30.04F WCI  31
CLINTON *      SUNNY     34  28  80 W7        30.11R WCI  28
DECORAH *      SUNNY     36  27  69 CALM      30.02R
DUBUQUE        SUNNY     33  28  81 SW3       30.06R
MONTICELLO *   SUNNY     34  32  93 CALM      30.07S
OELWEIN *      SUNNY     36  28  75 W7        30.06S WCI  30
WATERLOO       SUNNY     39  28  64 SW9       30.06R WCI  33
$$

IAZ064-065-067-068-078-301400-
   EAST CENTRAL IOWA

CITY           SKY/WX    TMP DP  RH WIND       PRES   REMARKS
DAVENPORT      SUNNY     36  28  73 W9        30.10R WCI  29
IOWA CITY      SUNNY     35  28  75 W6        30.12R WCI  30
MT. PLEASANT * SUNNY     36  28  75 SW6       30.12S WCI  31
MUSCATINE *    SUNNY     41  27  56 SW6       30.11S
QUAD CITIES    SUNNY     38  30  73 W3        30.10R
$$

IAZ062-063-075>077-085>089-095>099-301400-
   SOUTHEAST IOWA

CITY           SKY/WX    TMP DP  RH WIND       PRES   REMARKS
BURLINGTON     SUNNY     39  29  67 W8        30.12S WCI  33
FAIRFIELD *    SUNNY     37  27  65 SW7       30.12R WCI  32
FORT MADISON * SUNNY     39  28  65 SW5       30.13S
KEOKUK *       SUNNY     39  32  75 SW7       30.13F WCI  34
OSKALOOSA *      N/A     34  28  80 SW5       30.12R WCI  30
CENTERVILLE *  SUNNY     36  30  80 SW7       30.15R WCI  30
OTTUMWA        SUNNY     38  28  67 SW5       30.11S WCI  34
WASHINGTON *   SUNNY     37  30  75 W8        30.11R WCI  31
$$

ABBREVIATIONS USED IN REMARKS
   TC - TEMPERATURES IN CELSIUS
  WCI - WIND CHILL INDEX
   HX - HEAT INDEX
  VSB - VISIBILITY
$$




USA.gov is the U.S. government's official web portal to all federal, state and local government web resources and services.